Location: Buckland
(65.9785°N, 161.1281°W)
Time: 04:20:29
(UTC+00:00)

Transit 4A - Pass Details

Date: 07 August 2021
Orbit: 870 x 974 km, 66.8° (Epoch: 26 September)

Event Time Altitude Azimuth Distance (km) Brightness Sun altitude
Rises 11:34:59 0° 236° (SW) 3,468 10.5 -7.3°
Reaches altitude 10° 11:37:28 10° 235° (SW) 2,526 9.8 -7.3°
Maximum altitude 11:43:16 74° 152° (SSE) 912 7.8 -7.1°
Drops below altitude 10° 11:49:06 10° 68° (ENE) 2,539 10.7 -7.0°
Sets 11:51:36 0° 67° (ENE) 3,487 11.5 -6.9°
